Regional Weather Roundup
Issued by NWS

Home | Current Version | Previous Version | Text Only | Print | Product List | Glossary Off
Versions: 1 2 3 4 5 6 7 8 9 10 11 12 13 14 15 16 17 18 19 20 21 22 23 24 25 26 27 28

000
ASUS45 KBOI 241110
RWRID
WEATHER ROUNDUP FOR IDAHO
NATIONAL WEATHER SERVICE BOISE ID
500 AM MDT THU APR 24 2014

NOTE: "FAIR" INDICATES FEW OR NO CLOUDS BELOW 12000 FEET
WITH NO SIGNIFICANT WEATHER AND/OR OBSTRUCTIONS TO VISIBILITY

IDZ012-014-241200-
SOUTHWEST IDAHO


CITY           SKY/WX    TMP DP  RH WIND       PRES   REMARKS
BOISE          CLOUDY    46  35  65 SW6       29.93S
CALDWELL       CLOUDY    50  30  46 S9        29.94F
MOUNTAIN HOME  CLOUDY    46  31  56 E13       29.92F
$$

IDZ016-017-241200-
SOUTHCENTRAL IDAHO


CITY           SKY/WX    TMP DP  RH WIND       PRES   REMARKS
BURLEY         MOCLDY    39  28  64 S13       29.96S WCI  31
JEROME         CLOUDY    42  28  57 SE8       29.96F
TWIN FALLS     CLOUDY    47  26  44 S14       29.94F
$$

IDZ019>023-241200-
SOUTHEAST IDAHO


CITY           SKY/WX    TMP DP  RH WIND       PRES   REMARKS
IDAHO FALLS    CLEAR     35  25  66 SW7       29.99S WCI  29
POCATELLO      CLEAR     42  23  46 S14       29.98F
REXBURG        CLEAR     36  23  59 S8        29.98S WCI  30
$$

IDZ006-010-011-018-031-032-241200-
CENTRAL IDAHO MOUNTAINS


CITY           SKY/WX    TMP DP  RH WIND       PRES   REMARKS
MCCALL         LGT RAIN  35  32  88 SE8       29.88F WCI  29
HAILEY         CLOUDY    36  27  69 NW6       29.99F WCI  31
STANLEY          N/A     36  24  62 S7        29.93F WCI  30
SALMON         CLOUDY    43  25  49 CALM      29.88S
CHALLIS        CLOUDY    40  23  50 S7        29.91F
$$

IDZ002-004-006-007-026-241200-
NORTHERN IDAHO


CITY           SKY/WX    TMP DP  RH WIND       PRES   REMARKS
LEWISTON       LGT RAIN  45  39  79 E12       29.80F
LOWELL           N/A     41  39  93 N3        29.90S
COEUR D`ALENE  CLOUDY    41  37  87 CALM      29.79F
MULLAN PASS    SNOW      28  28 100 VRB6      29.75F VSB 1/2 WCI  22
$$



USA.gov is the U.S. government's official web portal to all federal, state and local government web resources and services.